Weather in Libourne

France     44°55′09″N   0°14′22″E
temp.,
°C
wind,
m/s
gust,
m/s
humid.,
%
clouds,
%
prec.,
mm/h
press.,
hPa
HPBL,
m
9 may, sun
sun923:00+20sse71764100 0.0 1006493
02:00+17se7167018 0.0 1004468
05:00+16se71574100 0.0 1003391
08:00+15se61378100 0.0 1003449
11:00+20sse71362100 0.0 1003773
14:00+17s61489100 3.4 1004827
17:00+17sse61387100 5.1 1001601
20:00+15wnw3592100 7.0 1002221
10 may, mon
mon1023:00+13wnw4894100 5.8 1004531
02:00+12wsw4889100 6.1 1006548
05:00+10ssw2495100 1.8 1008177
08:00+11sse35935 1.8 1009186
11:00+15ssw23705 0.3 1010910
14:00+19sw2548100 0.6 10092155
17:00+18nw2355100 0.1 1007871
20:00+16ne2467100 0.2 100799
11 may, tue
tue1123:00+12se1188100 0.6 100813
02:00+11ssw2397100 1.9 1008141
05:00+10wnw5996100 0.6 1009723
08:00+9nw2895100 8.3 1011498
11:00+13wnw6975100 1.1 10131190
14:00+16wnw795095 1.8 10152209
17:00+16wnw795065 0.1 10162239
20:00+13wnw47665 0.2 1017773
12 may, wed
wed1223:00+8sw228440 0.0 101820
02:00+8ssw3487100 0.0 101779
05:00+9s2382100 0.0 101588
08:00+10se2480100 0.1 1014149
11:00+12sse576797 0.0 1014523
14:00+16s4656100 0.0 10121493
17:00+15sw7126118 0.3 10121334
20:00+13w10158579 0.4 10101103
13 may, thu
thu1323:00+11wnw51185100 0.1 1015946
02:00+7wsw2493100 0.1 101678
05:00+7wsw22946 0.1 101522
08:00+9w1294100 1.3 1015106
11:00+13w3471100 1.0 1014738
14:00+15wnw466236 2.5 10141489
17:00+16wnw674658 0.9 10132069
20:00+14wnw57605 1.0 1013699